Flight Track Log - Related Links

Times and Time Zones

All times are in EDT time to prevent confusion due to time zone crossing. See the VRD337 flight status page for this flight to view local times or setup timezone preferences in your user account.

Time Position Orientation Groundspeed Altitude Reporting Facility
EDT Latitude Longitude Course Direction KTS MPH feet Rate Location/Type
Tue 07:11:43 PM 26.0756 -80.1706 272° West 139 160 1,000  Level Miami Center
Tue 07:11:59 PM 26.0758 -80.1797 272° West 135 155 1,400 1,347 Climbing Miami Center
Tue 07:12:32 PM 26.0753 -80.2122 269° West 182 209 2,100 968 Climbing Miami Center
Tue 07:13:01 PM 26.0756 -80.2336 271° West 174 200 2,400 1,475 Climbing Miami Center
Tue 07:13:33 PM 26.0878 -80.2781 287° West 260 299 3,600 1,898 Climbing Miami Center
Tue 07:20:14 PM 26.4298 -80.7423 330° Northwest 384 442 16,100 1,782 Climbing FlightAware ADS-B (RJTF)
Tue 07:20:44 PM 26.4679 -80.7664 331° Northwest 390 449 16,400 1,333 Climbing FlightAware ADS-B (RJTF)
Tue 07:20:59 PM 26.4946 -80.7852 319° Northwest 368 423 17,100 2,600 Climbing FlightAware ADS-B (RJTF)
Tue 07:21:14 PM 26.5116 -80.8053 308° West 350 403 17,700 1,333 Climbing FlightAware ADS-B (RJTF)
Tue 07:21:44 PM 26.5326 -80.8432 300° West 357 411 18,100 1,165 Climbing FlightAware ADS-B (RJTF)
Tue 07:23:33 PM 26.6271 -81.0179 301° West 376 433 20,400 1,345 Climbing FlightAware ADS-B
Tue 07:24:38 PM 26.6947 -81.1428 301° West 380 437 22,000 1,320 Climbing FlightAware ADS-B
Tue 07:25:13 PM 26.7193 -81.1889 295° West 379 436 22,600 735 Climbing FlightAware ADS-B (RJTF)
Tue 07:25:27 PM 26.7175 -81.1854 295° West 380 437 22,600 1,254 Level FlightAware ADS-B (RJTF)
Tue 07:26:20 PM 26.7273 -81.2076 289° West 378 435 24,000 1,500 Climbing FlightAware ADS-B
Tue 07:26:59 PM 26.7821 -81.3885 289° West 374 430 24,900 1,216 Climbing FlightAware ADS-B (RJTF)
Tue 07:27:34 PM 26.8049 -81.4644 289° West 381 438 25,500 1,114 Climbing FlightAware ADS-B
Tue 07:28:09 PM 26.8233 -81.5257 289° West 380 437 26,200 1,164 Climbing FlightAware ADS-B
Tue 07:28:41 PM 26.8407 -81.5837 288° West 381 438 26,800 831 Climbing FlightAware ADS-B
Tue 07:29:14 PM 26.8592 -81.6455 289° West 385 443 27,100 750 Climbing FlightAware ADS-B
Tue 07:29:45 PM 26.8791 -81.7115 289° West 387 445 27,600 833 Climbing FlightAware ADS-B
Tue 07:30:26 PM 26.9012 -81.7859 288° West 392 451 28,100 1,037 Climbing FlightAware ADS-B
Tue 07:31:06 PM 26.9279 -81.8641 297° West 395 455 29,000 1,606 Climbing FlightAware ADS-B
Tue 07:31:37 PM 26.9566 -81.9184 302° West 388 447 30,000 1,548 Climbing FlightAware ADS-B
Tue 07:32:08 PM 26.9817 -81.9698 291° West 369 425 30,600 581 Climbing FlightAware ADS-B
Tue 07:32:39 PM 26.9989 -82.0292 287° West 378 435 30,600 179 Level FlightAware ADS-B
Tue 07:33:15 PM 27.0176 -82.0954 288° West 388 447 30,800 649 Climbing FlightAware ADS-B
Tue 07:33:53 PM 27.0387 -82.1697 288° West 385 443 31,400 1,071 Climbing FlightAware ADS-B
Tue 07:34:39 PM 27.0612 -82.2481 288° West 379 436 32,300 1,200 Climbing FlightAware ADS-B
Tue 07:35:28 PM 27.0895 -82.3468 288° West 370 426 33,300 1,200 Climbing FlightAware ADS-B
Tue 07:35:59 PM 27.1050 -82.4015 288° West 362 417 33,900 519 Climbing FlightAware ADS-B
Tue 07:36:49 PM 27.1303 -82.4911 288° West 375 432 34,000 74 Climbing FlightAware ADS-B
Tue 07:37:20 PM 27.1458 -82.5459 288° West 384 442 34,000  Level FlightAware ADS-B
Tue 07:37:57 PM 27.1676 -82.6231 288° West 393 452 34,000  Level FlightAware ADS-B
Tue 07:42:54 PM 27.3234 -83.1768 288° West 376 433 34,000  Level FlightAware ADS-B
Tue 07:44:03 PM 27.3625 -83.3179 287° West 381 438 34,000 -51 Level FlightAware ADS-B
Tue 07:44:51 PM 27.3850 -83.3919 287° West 381 438 33,900  Descending Miami Center
Tue 07:45:53 PM 27.4169 -83.5067 287° West 382 440 34,000 48 Climbing Miami Center
Tue 07:46:55 PM 27.4475 -83.6208 287° West 382 440 34,000  Level Miami Center
Tue 07:47:56 PM 27.4853 -83.7558 288° West 381 438 34,000 -24 Level Miami Center
Tue 07:51:01 PM 27.5742 -84.0881 286° West 370 426 33,900  Descending Miami Center
Tue 07:52:03 PM 27.6047 -84.1997 287° West 370 426 34,000 49 Climbing Miami Center
Tue 07:53:04 PM 27.6347 -84.3119 287° West 371 427 34,000  Level Miami Center
Tue 07:54:06 PM 27.6650 -84.4244 287° West 372 428 34,000  Level Miami Center
Tue 07:55:27 PM 27.7111 -84.5847 288° West 372 428 34,000  Level Jacksonville Center
Tue 07:56:00 PM 27.7262 -84.6910 286° West  Level FlightAware Approximate
Tue 07:56:27 PM 27.7347 -84.6953 284° West 372 428 34,000  Level Jacksonville Center
Tue 07:57:27 PM 27.7664 -84.8086 288° West 372 428 34,000  Level Jacksonville Center
Tue 07:58:27 PM 27.7939 -84.9169 286° West 380 437 34,000  Level Jacksonville Center
Tue 07:59:27 PM 27.8233 -85.0300 286° West 378 435 34,000  Level Jacksonville Center
Tue 08:00:27 PM 27.8528 -85.1411 287° West 373 429 34,000  Level Jacksonville Center
Tue 08:01:27 PM 27.8822 -85.2497 287° West 373 429 34,000  Level Jacksonville Center
Tue 08:02:27 PM 27.9133 -85.3631 287° West 373 429 34,000  Level Jacksonville Center
Tue 08:04:21 PM 27.9778 -85.5581 291° West 367 422 34,000  Level Miami Center
Tue 08:05:23 PM 28.0153 -85.6861 288° West 365 420 34,000 -49 Level Miami Center
Tue 08:06:24 PM 28.0472 -85.7928 289° West 361 415 33,900 -49 Descending Miami Center
Tue 08:07:26 PM 28.0783 -85.8975 289° West 355 409 33,900  Level Miami Center
Tue 08:08:27 PM 28.1089 -86.0017 288° West 354 407 33,900 50 Level Miami Center
Tue 08:09:27 PM 28.1411 -86.1078 289° West 356 410 34,000 50 Climbing Jacksonville Center
Tue 08:10:27 PM 28.1697 -86.2075 288° West 350 403 34,000  Level Jacksonville Center
Tue 08:11:27 PM 28.2044 -86.3169 290° West 350 403 34,000  Level Jacksonville Center
Tue 08:12:27 PM 28.2350 -86.4217 288° West 350 403 34,000  Level Jacksonville Center
Tue 08:13:27 PM 28.2656 -86.5264 288° West 358 412 34,000  Level Jacksonville Center
Tue 08:14:27 PM 28.2939 -86.6311 287° West 352 405 34,000  Level Jacksonville Center
Tue 08:16:27 PM 28.3606 -86.8458 289° West 354 407 34,000  Level Jacksonville Center
Tue 08:17:27 PM 28.3864 -86.9458 286° West 349 402 34,000  Level Jacksonville Center
Tue 08:18:27 PM 28.4186 -87.0533 289° West 354 407 34,000  Level Jacksonville Center
Tue 08:19:27 PM 28.4464 -87.1558 287° West 354 407 34,000  Level Jacksonville Center
Tue 08:20:06 PM 28.4656 -87.2139 291° West 350 403 34,000 -59 Level Houston Center
Tue 08:21:08 PM 28.5006 -87.3361 288° West 343 395 33,900 -48 Descending Houston Center
Tue 08:22:10 PM 28.5292 -87.4392 288° West 342 394 33,900 48 Level Houston Center
Tue 08:23:12 PM 28.5594 -87.5433 288° West 343 395 34,000 48 Climbing Houston Center
Tue 08:24:14 PM 28.5911 -87.6500 289° West 351 404 34,000 -48 Level Houston Center
Tue 08:25:16 PM 28.6208 -87.7589 287° West 357 411 33,900  Descending Houston Center
Tue 08:26:18 PM 28.6525 -87.8700 288° West 363 418 34,000 48 Climbing Houston Center
Tue 08:27:20 PM 28.6906 -88.0039 288° West 367 422 34,000  Level Houston Center
Tue 08:28:22 PM 28.7189 -88.1064 288° West 368 423 34,000 -48 Level Houston Center
Tue 08:29:24 PM 28.7500 -88.2147 288° West 365 420 33,900 -48 Descending Houston Center
Tue 08:30:26 PM 28.7867 -88.3203 292° West 363 418 33,900 32 Level Houston Center
Tue 08:32:30 PM 28.8828 -88.5481 296° West 363 418 34,000  Climbing Houston Center
Tue 08:33:32 PM 28.9247 -88.6511 295° West 363 418 33,900 -48 Descending Houston Center
Tue 08:34:34 PM 28.9669 -88.7553 295° West 362 417 33,900 48 Level Houston Center
Tue 08:35:36 PM 29.0094 -88.8619 295° West 363 418 34,000 48 Climbing Houston Center
Tue 08:36:38 PM 29.0528 -88.9675 295° West 366 421 34,000  Level Houston Center
Tue 08:37:40 PM 29.0950 -89.0731 295° West 366 421 34,000  Level Houston Center
Tue 08:38:42 PM 29.1453 -89.1994 295° West 365 420 34,000  Level Houston Center
Tue 08:39:44 PM 29.1869 -89.3031 295° West 364 419 34,000 -49 Level Houston Center
Tue 08:40:45 PM 29.2275 -89.4069 294° West 361 415 33,900  Descending Houston Center
Tue 08:41:47 PM 29.2692 -89.5106 295° West 361 415 34,000 48 Climbing Houston Center
Tue 08:42:49 PM 29.3089 -89.6128 294° West 354 407 34,000 -48 Level Houston Center
Tue 08:43:51 PM 29.3486 -89.7128 295° West 348 400 33,900 -48 Descending Houston Center
Tue 08:44:53 PM 29.3886 -89.8114 295° West 343 395 33,900 48 Level Houston Center
Tue 08:45:55 PM 29.4375 -89.9358 294° West 352 405 34,000 48 Climbing Houston Center
Tue 08:46:57 PM 29.4783 -90.0392 294° West 356 410 34,000  Level Houston Center
Tue 08:47:59 PM 29.5169 -90.1389 294° West 346 398 34,000 -49 Level Houston Center
Tue 08:49:00 PM 29.5556 -90.2375 294° West 342 394 33,900 -49 Descending Houston Center
Tue 08:50:02 PM 29.5942 -90.3372 294° West 342 394 33,900 48 Level Houston Center
Tue 08:51:04 PM 29.6339 -90.4375 295° West 342 394 34,000 48 Climbing Houston Center
Tue 08:52:06 PM 29.6728 -90.5386 294° West 342 394 34,000  Level Houston Center
Tue 08:57:49 PM 29.9024 -91.1374 294° West 348 400 34,000  Level FlightAware ADS-B (KHOU)
Tue 08:58:20 PM 29.9226 -91.1904 294° West 352 405 34,000  Level FlightAware ADS-B (KHOU)
Tue 08:58:50 PM 29.9441 -91.2469 294° West 354 407 34,000  Level FlightAware ADS-B (KHOU)
Tue 08:59:11 PM 29.9505 -91.2639 294° West 355 409 34,000  Level FlightAware ADS-B (KHOU)
Tue 08:59:42 PM 29.9709 -91.3177 294° West 356 410 34,000 88 Level FlightAware ADS-B (KHOU)
Tue 09:00:19 PM 30.0023 -91.4008 294° West 355 409 34,100  Climbing FlightAware ADS-B (KHOU)
Tue 09:00:49 PM 30.0223 -91.4531 294° West 355 409 34,000 -100 Descending FlightAware ADS-B (KHOU)
Tue 09:01:19 PM 30.0402 -91.5002 294° West 354 407 34,000  Level FlightAware ADS-B (KHOU)
Tue 09:01:49 PM 30.0614 -91.5567 294° West 354 407 34,000  Level FlightAware ADS-B (KHOU)
Tue 09:02:19 PM 30.0806 -91.6082 294° West 356 410 34,000  Level FlightAware ADS-B (KHOU)
Tue 09:03:00 PM 30.1073 -91.6800 292° West 357 411 34,000  Level FlightAware ADS-B (KHOU)
Tue 09:03:19 PM 30.1145 -91.7166 276° West 356 410 34,000  Level FlightAware ADS-B (KHOU)
Tue 09:04:00 PM 30.1183 -91.7940 274° West 357 411 34,000  Level FlightAware ADS-B (KHOU)
Tue 09:04:29 PM 30.1201 -91.8336 273° West 358 412 34,000  Level FlightAware ADS-B (KHOU)
Tue 09:05:15 PM 30.1246 -91.9370 273° West 358 412 34,000  Level FlightAware ADS-B (KHOU)
Tue 09:05:44 PM 30.1268 -91.9924 273° West 359 413 34,000 122 Level FlightAware ADS-B (KHOU)
Tue 09:06:04 PM 30.1314 -92.0293 288° West 359 413 34,100 100 Climbing FlightAware ADS-B (KHOU)
Tue 09:06:44 PM 30.1586 -92.1009 294° West 360 414 34,100 -71 Level FlightAware ADS-B (KHOU)
Tue 09:07:29 PM 30.1885 -92.1803 294° West 357 411 34,000 -79 Descending FlightAware ADS-B (KHOU)
Tue 09:08:00 PM 30.2073 -92.2305 294° West 358 412 34,000  Level FlightAware ADS-B (KHOU)
Tue 09:08:29 PM 30.2274 -92.2837 294° West 357 411 34,000  Level FlightAware ADS-B (KHOU)
Tue 09:08:59 PM 30.2474 -92.3365 294° West 360 414 34,000  Level FlightAware ADS-B (KHOU)
Tue 09:09:29 PM 30.2681 -92.3912 294° West 360 414 34,000  Level FlightAware ADS-B (KHOU)
Tue 09:10:00 PM 30.2881 -92.4446 294° West 360 414 34,000  Level FlightAware ADS-B (KHOU)
Tue 09:10:29 PM 30.3083 -92.4983 294° West 359 413 34,000  Level FlightAware ADS-B (KHOU)
Tue 09:11:00 PM 30.3277 -92.5500 294° West 359 413 34,000  Level FlightAware ADS-B (KHOU)
Tue 09:11:30 PM 30.3474 -92.6025 294° West 358 412 34,000  Level FlightAware ADS-B (KHOU)
Tue 09:12:00 PM 30.3675 -92.6561 294° West 360 414 34,000  Level FlightAware ADS-B (KHOU)
Tue 09:12:29 PM 30.3863 -92.7067 294° West 360 414 34,000  Level FlightAware ADS-B (KHOU)
Tue 09:13:00 PM 30.4066 -92.7617 293° West 361 415 34,000  Level FlightAware ADS-B (KHOU)
Tue 09:13:29 PM 30.4264 -92.8152 294° West 363 418 34,000  Level FlightAware ADS-B (KHOU)
Tue 09:13:59 PM 30.4465 -92.8688 294° West 365 420 34,000  Level FlightAware ADS-B (KHOU)
Tue 09:14:30 PM 30.4672 -92.9237 294° West 366 421 34,000  Level FlightAware ADS-B (KHOU)
Tue 09:14:59 PM 30.4863 -92.9748 294° West 366 421 34,000  Level FlightAware ADS-B (KHOU)
Tue 09:15:29 PM 30.5065 -93.0293 294° West 366 421 34,000  Level FlightAware ADS-B (KHOU)
Tue 09:15:59 PM 30.5276 -93.0860 294° West 367 422 34,000  Level FlightAware ADS-B (KHOU)
Tue 09:16:30 PM 30.5474 -93.1407 293° West 367 422 34,000  Level FlightAware ADS-B (KHOU)
Tue 09:16:57 PM 30.5654 -93.1902 293° West 368 423 34,000  Level FlightAware ADS-B (KHOU)
Tue 09:17:29 PM 30.5872 -93.2492 294° West 370 426 34,000  Level FlightAware ADS-B (KHOU)
Tue 09:17:59 PM 30.6074 -93.3041 294° West 372 428 34,000  Level FlightAware ADS-B (KHOU)
Tue 09:18:29 PM 30.6279 -93.3600 294° West 372 428 34,000  Level FlightAware ADS-B (KHOU)
Tue 09:18:59 PM 30.6473 -93.4129 294° West 372 428 34,000  Level FlightAware ADS-B (KHOU)
Tue 09:19:29 PM 30.6677 -93.4685 293° West 372 428 34,000  Level FlightAware ADS-B (KHOU)
Tue 09:20:00 PM 30.6883 -93.5252 293° West 372 428 34,000  Level FlightAware ADS-B (KHOU)
Tue 09:20:30 PM 30.7086 -93.5812 293° West 373 429 34,000  Level FlightAware ADS-B (KHOU)
Tue 09:21:00 PM 30.7283 -93.6350 293° West 373 429 34,000  Level FlightAware ADS-B (KHOU)
Tue 09:21:30 PM 30.7481 -93.6896 293° West 372 428 34,000  Level FlightAware ADS-B (KHOU)
Tue 09:22:00 PM 30.7687 -93.7463 293° West 372 428 34,000 100 Level FlightAware ADS-B (KHOU)
Tue 09:22:30 PM 30.7881 -93.7996 294° West 370 426 34,100 100 Climbing FlightAware ADS-B (KHOU)
Tue 09:23:00 PM 30.8083 -93.8545 294° West 369 425 34,100 -100 Level FlightAware ADS-B (KHOU)
Tue 09:23:30 PM 30.8275 -93.9075 294° West 369 425 34,000 -120 Descending FlightAware ADS-B (KHOU)
Tue 09:23:50 PM 30.8413 -93.9462 292° West 365 420 34,000  Level FlightAware ADS-B
Tue 09:24:00 PM 30.8474 -93.9633 294° West 369 425 34,000  Level FlightAware ADS-B (KHOU)
Tue 09:24:30 PM 30.8670 -94.0184 294° West 369 425 34,000  Level FlightAware ADS-B (KHOU)
Tue 09:24:59 PM 30.8857 -94.0706 293° West 359 413 34,000  Level FlightAware ADS-B (KHOU)
Tue 09:25:29 PM 30.9053 -94.1253 293° West 360 414 34,000  Level FlightAware ADS-B (KHOU)
Tue 09:26:00 PM 30.9246 -94.1794 293° West 361 415 34,000  Level FlightAware ADS-B (KHOU)
Tue 09:26:30 PM 30.9444 -94.2345 293° West 362 417 34,000  Level FlightAware ADS-B (KHOU)
Tue 09:26:59 PM 30.9629 -94.2865 293° West 364 419 34,000  Level FlightAware ADS-B (KHOU)
Tue 09:27:29 PM 30.9823 -94.3412 293° West 364 419 34,000  Level FlightAware ADS-B (KHOU)
Tue 09:28:00 PM 31.0021 -94.3964 293° West 365 420 34,000  Level FlightAware ADS-B (KHOU)
Tue 09:28:30 PM 31.0218 -94.4518 293° West 367 422 34,000  Level FlightAware ADS-B (KHOU)
Tue 09:28:59 PM 31.0408 -94.5055 293° West 367 422 34,000  Level FlightAware ADS-B (KHOU)
Tue 09:29:30 PM 31.0604 -94.5604 293° West 368 423 34,000  Level FlightAware ADS-B (KHOU)
Tue 09:29:59 PM 31.0796 -94.6147 293° West 368 423 34,000  Level FlightAware ADS-B (KHOU)
Tue 09:30:30 PM 31.0997 -94.6720 293° West 368 423 34,000  Level FlightAware ADS-B (KHOU)
Tue 09:30:59 PM 31.1183 -94.7250 293° West 369 425 34,000  Level FlightAware ADS-B (KHOU)
Tue 09:31:30 PM 31.1378 -94.7806 293° West 370 426 34,000  Level FlightAware ADS-B (KHOU)
Tue 09:31:59 PM 31.1576 -94.8365 293° West 372 428 34,000  Level FlightAware ADS-B (KHOU)
Tue 09:32:29 PM 31.1775 -94.8933 293° West 372 428 34,000  Level FlightAware ADS-B (KHOU)
Tue 09:33:00 PM 31.1966 -94.9480 293° West 373 429 34,000  Level FlightAware ADS-B (KHOU)
Tue 09:33:30 PM 31.2156 -95.0024 293° West 373 429 34,000  Level FlightAware ADS-B (KHOU)
Tue 09:33:59 PM 31.2358 -95.0607 293° West 373 429 34,000  Level FlightAware ADS-B (KHOU)
Tue 09:34:30 PM 31.2556 -95.1175 293° West 374 430 34,000  Level FlightAware ADS-B (KHOU)
Tue 09:34:59 PM 31.2743 -95.1711 292° West 376 433 34,000  Level FlightAware ADS-B (KHOU)
Tue 09:35:29 PM 31.2943 -95.2288 292° West 377 434 34,000  Level FlightAware ADS-B (KHOU)
Tue 09:35:59 PM 31.3140 -95.2856 293° West 379 436 34,000  Level FlightAware ADS-B (KHOU)
Tue 09:36:30 PM 31.3342 -95.3437 292° West 380 437 34,000  Level FlightAware ADS-B (KHOU)
Tue 09:37:00 PM 31.3540 -95.4012 292° West 380 437 34,000  Level FlightAware ADS-B (KHOU)
Tue 09:37:30 PM 31.3731 -95.4570 292° West 380 437 34,000  Level FlightAware ADS-B (KHOU)
Tue 09:37:42 PM 31.3803 -95.4775 292° West 380 437 34,000  Level FlightAware ADS-B (KHOU)
Tue 09:38:30 PM 31.4125 -95.5713 292° West 380 437 34,000  Level FlightAware ADS-B (KHOU)
Tue 09:39:00 PM 31.4326 -95.6301 292° West 380 437 34,000  Level FlightAware ADS-B (KHOU)
Tue 09:39:30 PM 31.4517 -95.6859 292° West 381 438 34,000  Level FlightAware ADS-B (KHOU)
Tue 09:39:59 PM 31.4708 -95.7420 292° West 380 437 34,000  Level FlightAware ADS-B (KHOU)
Tue 09:40:29 PM 31.4913 -95.8016 292° West 381 438 34,000  Level FlightAware ADS-B (KHOU)
Tue 09:40:58 PM 31.5095 -95.8551 292° West 380 437 34,000  Level FlightAware ADS-B (KHOU)
Tue 09:41:30 PM 31.5299 -95.9153 292° West 381 438 34,000  Level FlightAware ADS-B (KHOU)
Tue 09:41:59 PM 31.5494 -95.9725 292° West 382 440 34,000  Level FlightAware ADS-B (KHOU)
Tue 09:42:29 PM 31.5693 -96.0311 292° West 382 440 34,000  Level FlightAware ADS-B (KHOU)
Tue 09:43:00 PM 31.5887 -96.0885 292° West 383 441 34,000  Level FlightAware ADS-B (KHOU)
Tue 09:43:30 PM 31.6081 -96.1460 292° West 382 440 34,000  Level FlightAware ADS-B (KHOU)
Tue 09:44:00 PM 31.6269 -96.2018 292° West 382 440 34,000  Level FlightAware ADS-B (KHOU)
Tue 09:44:29 PM 31.6474 -96.2631 292° West 382 440 34,000  Level FlightAware ADS-B (KHOU)
Tue 09:45:00 PM 31.6662 -96.3190 292° West 382 440 34,000  Level FlightAware ADS-B (KHOU)
Tue 09:45:29 PM 31.6850 -96.3753 292° West 382 440 34,000  Level FlightAware ADS-B (KHOU)
Tue 09:46:00 PM 31.7054 -96.4359 292° West 383 441 34,000  Level FlightAware ADS-B (KHOU)
Tue 09:46:29 PM 31.7251 -96.4950 292° West 385 443 34,000  Level FlightAware ADS-B (KHOU)
Tue 09:47:00 PM 31.7449 -96.5541 292° West 385 443 34,000  Level FlightAware ADS-B (KHOU)
Tue 09:47:29 PM 31.7634 -96.6098 292° West 386 444 34,000  Level FlightAware ADS-B (KHOU)
Tue 09:47:59 PM 31.7828 -96.6679 292° West 386 444 34,000  Level FlightAware ADS-B (KHOU)
Tue 09:48:29 PM 31.8024 -96.7272 292° West 385 443 34,000  Level FlightAware ADS-B (KHOU)
Tue 09:49:00 PM 31.8217 -96.7854 292° West 385 443 34,000  Level FlightAware ADS-B (KHOU)
Tue 09:49:29 PM 31.8409 -96.8439 292° West 384 442 34,000  Level FlightAware ADS-B (KHOU)
Tue 09:50:00 PM 31.8599 -96.9014 292° West 383 441 34,000  Level FlightAware ADS-B (KHOU)
Tue 09:50:29 PM 31.8797 -96.9617 292° West 384 442 34,000  Level FlightAware ADS-B (KHOU)
Tue 09:50:59 PM 31.8989 -97.0201 292° West 384 442 34,000  Level FlightAware ADS-B (KHOU)
Tue 09:51:29 PM 31.9175 -97.0767 292° West 384 442 34,000  Level FlightAware ADS-B (KHOU)
Tue 09:52:00 PM 31.9376 -97.1376 292° West 384 442 34,000  Level FlightAware ADS-B (KHOU)
Tue 09:52:30 PM 31.9568 -97.1963 291° West 385 443 34,000  Level FlightAware ADS-B (KHOU)
Tue 09:53:00 PM 31.9763 -97.2562 291° West 385 443 34,000  Level FlightAware ADS-B (KHOU)
Tue 09:53:29 PM 31.9941 -97.3110 291° West 386 444 34,000  Level FlightAware ADS-B (KHOU)
Tue 09:54:00 PM 32.0134 -97.3703 291° West 386 444 34,000  Level FlightAware ADS-B (KHOU)
Tue 09:54:30 PM 32.0334 -97.4319 291° West 387 445 34,000  Level FlightAware ADS-B (KHOU)
Tue 09:55:00 PM 32.0525 -97.4910 291° West 387 445 34,000  Level FlightAware ADS-B (KHOU)
Tue 09:55:29 PM 32.0711 -97.5485 291° West 388 447 34,000  Level FlightAware ADS-B (KHOU)
Tue 09:56:00 PM 32.0905 -97.6086 291° West 389 448 34,000  Level FlightAware ADS-B (KHOU)
Tue 09:56:20 PM 32.1013 -97.6419 291° West 389 448 34,000  Level FlightAware ADS-B (KHOU)
Tue 09:56:59 PM 32.1281 -97.7255 291° West 389 448 34,000  Level FlightAware ADS-B (KHOU)
Tue 09:57:30 PM 32.1479 -97.7870 291° West 389 448 34,000  Level FlightAware ADS-B (KHOU)
Tue 09:57:51 PM 32.1570 -97.8156 290° West 388 447 34,000  Level FlightAware ADS-B
Tue 09:58:00 PM 32.1670 -97.8469 291° West 388 447 34,000  Level FlightAware ADS-B (KHOU)
Tue 09:58:29 PM 32.1813 -97.8917 291° West 387 445 34,000  Level FlightAware ADS-B (KHOU)
Tue 09:58:32 PM 32.1793 -97.8854 290° West 388 447 34,000  Level FlightAware ADS-B
Tue 09:58:59 PM 32.2052 -97.9665 291° West 388 447 34,000  Level FlightAware ADS-B (KHOU)
Tue 09:59:12 PM 32.2090 -97.9784 290° West 388 447 34,000  Level FlightAware ADS-B
Tue 09:59:27 PM 32.2215 -98.0176 291° West 388 447 34,000  Level FlightAware ADS-B (KHOU)
Tue 09:59:52 PM 32.2340 -98.0569 290° West 388 447 34,000  Level FlightAware ADS-B
Tue 10:00:29 PM 32.2536 -98.1184 290° West 389 448 34,000  Level FlightAware ADS-B
Tue 10:01:01 PM 32.2769 -98.1920 290° West 389 448 34,000  Level FlightAware ADS-B
Tue 10:01:10 PM 32.2861 -98.2211 291° West 390 449 34,000  Level FlightAware ADS-B (KHOU)
Tue 10:01:39 PM 32.3055 -98.2834 291° West 390 449 34,000  Level FlightAware ADS-B (KHOU)
Tue 10:01:42 PM 32.3017 -98.2710 290° West 390 449 34,000  Level FlightAware ADS-B
Tue 10:02:09 PM 32.3240 -98.3420 291° West 390 449 34,000  Level FlightAware ADS-B (KHOU)
Tue 10:02:40 PM 32.3432 -98.4026 291° West 390 449 34,000  Level FlightAware ADS-B (KHOU)
Tue 10:03:09 PM 32.3621 -98.4629 291° West 390 449 34,000  Level FlightAware ADS-B (KHOU)
Tue 10:03:39 PM 32.3800 -98.5197 291° West 391 450 34,000  Level FlightAware ADS-B (KHOU)
Tue 10:04:09 PM 32.3937 -98.5634 291° West 391 450 34,000  Level FlightAware ADS-B (KHOU)
Tue 10:05:07 PM 32.4292 -98.6722 291° West 389 448 34,000  Level Fort Worth Center
Tue 10:06:08 PM 32.4689 -98.7981 291° West 391 450 34,000  Level Fort Worth Center
Tue 10:07:09 PM 32.5058 -98.9194 290° West 391 450 34,000  Level Fort Worth Center
Tue 10:08:11 PM 32.5511 -99.0650 290° West 392 451 34,000  Level Fort Worth Center
Tue 10:09:12 PM 32.5881 -99.1867 290° West 392 451 34,000  Level Fort Worth Center
Tue 10:10:14 PM 32.6247 -99.3086 290° West 393 452 34,000  Level Fort Worth Center
Tue 10:11:15 PM 32.6617 -99.4317 290° West 393 452 34,000  Level Fort Worth Center
Tue 10:12:17 PM 32.6986 -99.5539 290° West 394 453 34,000  Level Fort Worth Center
Tue 10:13:18 PM 32.7361 -99.6761 290° West 394 453 34,000  Level Fort Worth Center
Tue 10:14:20 PM 32.7781 -99.8131 290° West 397 457 34,000  Level Fort Worth Center
Tue 10:15:21 PM 32.8161 -99.9419 289° West 397 457 34,000  Level Fort Worth Center
Tue 10:16:22 PM 32.8528 -100.0636 290° West 398 458 34,000  Level Fort Worth Center
Tue 10:17:24 PM 32.8892 -100.1853 290° West 394 453 34,000  Level Fort Worth Center
Tue 10:18:25 PM 32.9247 -100.3075 289° West 393 452 34,000  Level Fort Worth Center
Tue 10:19:27 PM 32.9611 -100.4317 289° West 397 457 34,000  Level Fort Worth Center
Tue 10:20:28 PM 32.9972 -100.5547 289° West 396 456 34,000  Level Fort Worth Center
Tue 10:21:30 PM 33.0317 -100.6797 288° West 396 456 34,000  Level Fort Worth Center
Tue 10:22:31 PM 33.0756 -100.8294 289° West 396 456 34,000  Level Fort Worth Center
Tue 10:23:32 PM 33.1119 -100.9547 289° West 397 457 34,000  Level Fort Worth Center
Tue 10:24:34 PM 33.1492 -101.0789 290° West 398 458 34,000  Level Fort Worth Center
Tue 10:25:35 PM 33.1853 -101.2044 289° West 400 460 34,000  Level Fort Worth Center
Tue 10:26:36 PM 33.2189 -101.3236 289° West 400 460 34,000  Level Fort Worth Center
Tue 10:27:38 PM 33.2553 -101.4497 289° West 400 460 34,000  Level Fort Worth Center
Tue 10:28:39 PM 33.2908 -101.5758 289° West 400 460 34,000  Level Fort Worth Center
Tue 10:29:40 PM 33.3331 -101.7264 289° West 400 460 34,000  Level Fort Worth Center
Tue 10:30:42 PM 33.3689 -101.8536 289° West 401 461 34,000  Level Fort Worth Center
Tue 10:31:43 PM 33.4042 -101.9797 289° West 402 463 34,000  Level Fort Worth Center
Tue 10:32:44 PM 33.4400 -102.1072 289° West 403 464 34,000  Level Fort Worth Center
Tue 10:33:46 PM 33.4747 -102.2342 288° West 403 464 34,000  Level Fort Worth Center
Tue 10:34:47 PM 33.5100 -102.3617 288° West 404 465 34,000  Level Fort Worth Center
Tue 10:35:48 PM 33.5442 -102.4894 288° West 404 465 34,000 49 Level Fort Worth Center
Tue 10:36:49 PM 33.5797 -102.6167 289° West 405 466 34,100 439 Climbing Fort Worth Center
Tue 10:37:51 PM 33.6028 -102.7783 280° West 413 475 34,900 829 Climbing Fort Worth Center
Tue 10:38:52 PM 33.6158 -102.9133 277° West 413 475 35,800 541 Climbing Fort Worth Center
Tue 10:39:53 PM 33.6283 -103.0483 276° West 412 474 36,000 98 Climbing Fort Worth Center
Tue 10:40:55 PM 33.6406 -103.1819 276° West 407 468 36,000  Level Fort Worth Center
Tue 10:41:56 PM 33.6525 -103.3181 276° West 408 470 36,000  Level Fort Worth Center
Tue 10:42:57 PM 33.6642 -103.4514 276° West 407 468 36,000  Level Fort Worth Center
Tue 10:43:59 PM 33.6761 -103.5861 276° West 407 468 36,000  Level Fort Worth Center
Tue 10:45:00 PM 33.6872 -103.7197 276° West 407 468 36,000  Level Fort Worth Center
Tue 10:46:01 PM 33.7003 -103.8814 276° West 405 466 36,000  Level Fort Worth Center
Tue 10:47:02 PM 33.7119 -104.0158 276° West 405 466 36,000  Level Fort Worth Center
Tue 10:48:09 PM 33.7242 -104.1694 276° West 408 470 36,000  Level Albuquerque Center
Tue 10:49:10 PM 33.7339 -104.3025 275° West 406 467 36,000  Level Albuquerque Center
Tue 10:50:11 PM 33.7453 -104.4481 275° West 406 467 36,000 49 Level Albuquerque Center
Tue 10:51:13 PM 33.7561 -104.5842 276° West 409 471 36,100  Climbing Albuquerque Center
Tue 10:52:14 PM 33.7658 -104.7178 275° West 407 468 36,000 -49 Descending Albuquerque Center
Tue 10:53:15 PM 33.7767 -104.8603 275° West 401 461 36,000  Level Albuquerque Center
Tue 10:54:16 PM 33.7872 -104.9914 276° West 401 461 36,000  Level Albuquerque Center
Tue 10:55:17 PM 33.7969 -105.1242 275° West 400 460 36,000  Level Albuquerque Center
Tue 10:56:19 PM 33.8061 -105.2556 275° West 399 459 36,000  Level Albuquerque Center
Tue 10:57:20 PM 33.8169 -105.3994 275° West 399 459 36,000  Level Albuquerque Center
Tue 10:58:21 PM 33.8264 -105.5336 275° West 399 459 36,000  Level Albuquerque Center
Tue 10:59:22 PM 33.8358 -105.6694 275° West 400 460 36,000  Level Albuquerque Center
Tue 11:00:24 PM 33.8442 -105.8028 274° West 401 461 36,000  Level Albuquerque Center
Tue 11:01:25 PM 33.8514 -105.9228 274° West 399 459 36,000  Level Albuquerque Center
Tue 11:02:26 PM 33.8589 -106.0547 274° West 398 458 36,000  Level Albuquerque Center
Tue 11:03:27 PM 33.8681 -106.1875 275° West 398 458 36,000  Level Albuquerque Center
Tue 11:04:28 PM 33.8772 -106.3350 274° West 401 461 36,000  Level Albuquerque Center
Tue 11:05:30 PM 33.8856 -106.4689 274° West 404 465 36,000  Level Albuquerque Center
Tue 11:06:31 PM 33.8950 -106.6161 274° West 403 464 36,000  Level Albuquerque Center
Tue 11:07:32 PM 33.9036 -106.7544 274° West 408 470 36,000  Level Albuquerque Center
Tue 11:13:18 PM 33.9489 -107.5318 274° West 406 467 36,000  Level FlightAware ADS-B
Tue 11:16:27 PM 33.9707 -107.9565 273° West 407 468 36,000  Level FlightAware ADS-B
Tue 11:18:29 PM 33.9843 -108.2329 273° West 405 466 36,000  Level FlightAware ADS-B
Tue 11:19:32 PM 33.9909 -108.3734 273° West 405 466 36,000  Level FlightAware ADS-B
Tue 11:20:36 PM 33.9976 -108.5186 273° West 406 467 36,000  Level FlightAware ADS-B
Tue 11:21:41 PM 34.0040 -108.6627 273° West 406 467 36,000  Level FlightAware ADS-B
Tue 11:22:42 PM 34.0100 -108.7982 273° West 408 470 36,000  Level FlightAware ADS-B
Tue 11:23:43 PM 34.0158 -108.9369 273° West 409 471 36,000  Level FlightAware ADS-B
Tue 11:24:43 PM 34.0216 -109.0772 273° West 407 468 36,000 397 Level FlightAware ADS-B
Tue 11:25:44 PM 34.0272 -109.2144 273° West 408 470 36,800 787 Climbing FlightAware ADS-B
Tue 11:26:45 PM 34.0326 -109.3540 273° West 405 466 37,600 571 Climbing FlightAware ADS-B
Tue 11:27:50 PM 34.0378 -109.4969 273° West 408 470 38,000 186 Climbing FlightAware ADS-B
Tue 11:28:54 PM 34.0435 -109.6408 273° West 409 471 38,000  Level FlightAware ADS-B
Tue 11:29:58 PM 34.0483 -109.7778 272° West 409 471 38,000  Level FlightAware ADS-B
Tue 11:32:02 PM 34.0579 -110.0648 272° West 405 466 38,000  Level FlightAware ADS-B
Tue 11:33:02 PM 34.0625 -110.2046 272° West 407 468 38,000  Level FlightAware ADS-B
Tue 11:34:06 PM 34.0669 -110.3490 272° West 413 475 38,000  Level FlightAware ADS-B
Tue 11:37:02 PM 34.0787 -110.7576 272° West 415 478 38,000  Level FlightAware ADS-B (VRMM / MLE)
Tue 11:37:32 PM 34.0807 -110.8286 271° West 414 476 38,000  Level FlightAware ADS-B (VRMM / MLE)
Tue 11:38:05 PM 34.0826 -110.9026 271° West 413 475 38,000  Level FlightAware ADS-B (VRMM / MLE)
Tue 11:38:40 PM 34.0847 -110.9834 271° West 412 474 38,000  Level FlightAware ADS-B (VRMM / MLE)
Tue 11:39:41 PM 34.0883 -111.1220 271° West 411 473 38,000  Level FlightAware ADS-B (VRMM / MLE)
Tue 11:40:27 PM 34.0906 -111.2261 270° West 410 472 38,000  Level FlightAware ADS-B (VRMM / MLE)
Tue 11:40:57 PM 34.0921 -111.2950 270° West 411 473 38,000  Level FlightAware ADS-B (VRMM / MLE)
Tue 11:41:29 PM 34.0939 -111.3708 271° West 410 472 38,000  Level FlightAware ADS-B (VRMM / MLE)
Tue 11:41:41 PM 34.0944 -111.3954 270° West 410 472 38,000  Level FlightAware ADS-B (VRMM / MLE)
Tue 11:42:19 PM 34.0962 -111.4846 270° West 408 470 38,000  Level FlightAware ADS-B (VRMM / MLE)
Tue 11:42:25 PM 34.0965 -111.4964 272° West 407 468 38,000  Level FlightAware ADS-B
Tue 11:42:49 PM 34.0977 -111.5521 270° West 407 468 38,000  Level FlightAware ADS-B (VRMM / MLE)
Tue 11:43:08 PM 34.0987 -111.5955 270° West 406 467 38,000  Level FlightAware ADS-B (VRMM / MLE)
Tue 11:43:18 PM 34.0990 -111.6150 270° West 406 467 38,000  Level FlightAware ADS-B (VRMM / MLE)
Tue 11:43:26 PM 34.0994 -111.6357 270° West 406 467 38,000  Level FlightAware ADS-B (VRMM / MLE)
Tue 11:44:09 PM 34.1012 -111.7318 270° West 411 473 38,000  Level FlightAware ADS-B (VRMM / MLE)
Tue 11:44:42 PM 34.1026 -111.8003 271° West 419 482 38,000  Level FlightAware ADS-B
Tue 11:45:14 PM 34.1036 -111.8511 271° West 420 483 38,000  Level FlightAware ADS-B
Tue 11:45:54 PM 34.1056 -111.9780 270° West 422 486 38,000  Level FlightAware ADS-B (VRMM / MLE)
Tue 11:46:04 PM 34.1055 -111.9747 271° West 422 486 38,000  Level FlightAware ADS-B
Tue 11:46:34 PM 34.1073 -112.0710 270° West 423 487 38,000  Level FlightAware ADS-B (VRMM / MLE)
Tue 11:47:35 PM 34.1055 -111.9747 271° West 423 487 38,000  Level FlightAware ADS-B
Tue 11:52:37 PM 34.1182 -112.9121 271° West 405 466 38,000  Level FlightAware ADS-B (VRMM / MLE)
Tue 11:53:07 PM 34.1188 -112.9793 271° West 406 467 38,000  Level FlightAware ADS-B (VRMM / MLE)
Tue 11:54:04 PM 34.1199 -113.1050 270° West 407 468 38,000 43 Level FlightAware ADS-B (VRMM / MLE)
Tue 11:55:27 PM 34.1213 -113.2960 270° West 407 468 38,100  Climbing FlightAware ADS-B (VRMM / MLE)
Tue 11:56:14 PM 34.1219 -113.4016 270° West 407 468 38,000 -34 Descending FlightAware ADS-B (VRMM / MLE)
Tue 11:58:21 PM 34.1230 -113.6890 270° West 405 466 38,000 27 Level FlightAware ADS-B (VRMM / MLE)
Tue 11:59:58 PM 34.1238 -113.9081 270° West 405 466 38,100  Climbing FlightAware ADS-B (VRMM / MLE)
Wed 12:00:30 AM 34.1236 -113.9667 270° West 405 466 38,000 -64 Descending Los Angeles Center
Wed 12:01:32 AM 34.1228 -114.0994 270° West 404 465 38,000  Level Los Angeles Center
Wed 12:02:34 AM 34.1233 -114.2336 270° West 403 464 38,000 -195 Level Los Angeles Center
Wed 12:03:35 AM 34.1225 -114.3675 270° West 403 464 37,600 -634 Descending Los Angeles Center
Wed 12:04:37 AM 34.1222 -114.5014 270° West 402 463 36,700 -976 Descending Los Angeles Center
Wed 12:05:38 AM 34.1222 -114.6639 270° West 403 464 35,600 -1,024 Descending Los Angeles Center
Wed 12:06:40 AM 34.1217 -114.7992 270° West 403 464 34,600 -829 Descending Los Angeles Center
Wed 12:07:41 AM 34.1206 -114.9303 269° West 400 460 33,900 -106 Descending Los Angeles Center
Wed 12:12:19 AM 34.0778 -115.5706 265° West 427 491 34,000 17 Climbing FlightAware ADS-B (KBNG)
Wed 12:13:24 AM 34.1019 -115.2374 265° West 422 486 34,000  Level FlightAware ADS-B (KBNG)
Wed 12:15:56 AM 34.0389 -116.0785 265° West 418 481 34,000 -65 Level FlightAware ADS-B (KBNG)
Wed 12:16:28 AM 34.0333 -116.1532 265° West 405 466 33,800 -1,429 Descending FlightAware ADS-B (KBNG)
Wed 12:16:59 AM 34.0281 -116.2189 264° West 406 467 32,500 -2,364 Descending FlightAware ADS-B (KBNG)
Wed 12:17:34 AM 34.0217 -116.2978 265° West 395 455 31,200 -2,712 Descending FlightAware ADS-B (KBNG)
Wed 12:18:12 AM 34.0153 -116.3787 264° West 393 452 29,200 -2,667 Descending FlightAware ADS-B (KBNG)
Wed 12:18:46 AM 34.0092 -116.4538 264° West 378 435 28,000 -1,773 Descending FlightAware ADS-B (KBNG)
Wed 12:18:56 AM 34.0092 -116.4529 264° West 377 434 27,900 -2,264 Descending FlightAware ADS-B
Wed 12:19:39 AM 34.0002 -116.5643 264° West 367 422 26,000 -2,432 Descending FlightAware ADS-B
Wed 12:20:10 AM 33.9955 -116.6213 264° West 362 417 24,900 -2,129 Descending FlightAware ADS-B (KBNG)
Wed 12:20:41 AM 33.9902 -116.6857 264° West 359 413 23,800 -1,970 Descending FlightAware ADS-B (KBNG)
Wed 12:21:17 AM 33.9843 -116.7572 264° West 349 402 22,700 -1,859 Descending FlightAware ADS-B (KBNG)
Wed 12:21:52 AM 33.9788 -116.8226 265° West 344 396 21,600 -1,950 Descending FlightAware ADS-B
Wed 12:21:57 AM 33.9780 -116.8325 264° West 344 396 21,400 -1,655 Descending FlightAware ADS-B (KBNG)
Wed 12:22:21 AM 33.9740 -116.8794 265° West 332 382 20,800 -1,714 Descending FlightAware ADS-B
Wed 12:22:32 AM 33.9727 -116.8955 264° West 327 376 20,400 -2,069 Descending FlightAware ADS-B (KBNG)
Wed 12:22:50 AM 33.9698 -116.9300 265° West 323 372 19,800 -1,935 Descending FlightAware ADS-B
Wed 12:23:03 AM 33.9677 -116.9540 264° West 324 373 19,400 -1,548 Descending FlightAware ADS-B (KBNG)
Wed 12:23:21 AM 33.9652 -116.9818 264° West 320 368 19,000 -1,579 Descending FlightAware ADS-B
Wed 12:23:41 AM 33.9616 -117.0223 264° West 316 364 18,400 -1,655 Descending FlightAware ADS-B (KBNG)
Wed 12:24:19 AM 33.9564 -117.0844 264° West 309 356 17,400 -1,500 Descending FlightAware ADS-B (KBNG)
Wed 12:24:21 AM 33.9561 -117.0882 265° West 308 354 17,400 -1,571 Level FlightAware ADS-B
Wed 12:25:01 AM 33.9506 -117.1534 264° West 300 345 16,300 -1,333 Descending FlightAware ADS-B (KBNG)
Wed 12:25:42 AM 33.9445 -117.2244 264° West 292 336 15,600 -1,000 Descending FlightAware ADS-B (KBNG)
Wed 12:25:49 AM 33.9435 -117.2357 264° West 290 334 15,500 -1,125 Descending FlightAware ADS-B
Wed 12:26:14 AM 33.9399 -117.2767 265° West 290 334 15,000 -1,231 Descending FlightAware ADS-B
Wed 12:26:28 AM 33.9381 -117.2976 264° West 292 336 14,700 -1,200 Descending FlightAware ADS-B
Wed 12:26:49 AM 33.9351 -117.3329 265° West 292 336 14,300 -1,105 Descending FlightAware ADS-B
Wed 12:27:06 AM 33.9329 -117.3594 265° West 291 335 14,000 -923 Descending FlightAware ADS-B
Wed 12:27:15 AM 33.9331 -117.3750 278° West 293 337 13,900 -1,200 Descending FlightAware ADS-B (KBNG)
Wed 12:27:21 AM 33.9350 -117.3845 288° West 293 337 13,700 -1,333 Descending FlightAware ADS-B
Wed 12:27:33 AM 33.9408 -117.4018 293° West 295 339 13,500 -1,000 Descending FlightAware ADS-B (KBNG)
Wed 12:27:51 AM 33.9485 -117.4234 294° West 293 337 13,200 -1,091 Descending FlightAware ADS-B
Wed 12:28:28 AM 33.9708 -117.4848 294° West 291 335 12,500 -1,108 Descending FlightAware ADS-B
Wed 12:28:56 AM 33.9856 -117.5261 294° West 291 335 12,000 -1,176 Descending FlightAware ADS-B
Wed 12:29:19 AM 33.9943 -117.5502 293° West 290 334 11,500 -1,161 Descending FlightAware ADS-B (KBNG)
Wed 12:29:27 AM 34.0018 -117.5714 294° West 289 333 11,400 -1,000 Descending FlightAware ADS-B
Wed 12:29:49 AM 34.0138 -117.6050 293° West 288 331 11,000 -1,034 Descending FlightAware ADS-B
Wed 12:29:56 AM 34.0155 -117.6097 294° West 286 329 10,900 -1,077 Descending FlightAware ADS-B
Wed 12:30:28 AM 34.0261 -117.6600 265° West 279 321 10,300 -982 Descending FlightAware ADS-B
Wed 12:30:51 AM 34.0226 -117.6942 263° West 278 320 10,000 -909 Descending FlightAware ADS-B
Wed 12:31:01 AM 34.0206 -117.7140 263° West 275 316 9,800 -1,667 Descending FlightAware ADS-B
Wed 12:31:09 AM 34.0192 -117.7271 263° West 276 318 9,500 -1,543 Descending FlightAware ADS-B
Wed 12:31:36 AM 34.0148 -117.7691 263° West 278 320 8,900 -1,304 Descending FlightAware ADS-B
Wed 12:31:55 AM 34.0133 -117.7841 264° West 284 327 8,500 -1,200 Descending FlightAware ADS-B
Wed 12:32:01 AM 34.0111 -117.8066 263° West 282 325 8,400 -1,143 Descending FlightAware ADS-B
Wed 12:32:16 AM 34.0089 -117.8299 264° West 279 321 8,100 -1,355 Descending FlightAware ADS-B
Wed 12:32:32 AM 34.0066 -117.8537 264° West 277 319 7,700 -1,400 Descending FlightAware ADS-B
Wed 12:32:46 AM 34.0046 -117.8739 264° West 275 316 7,400 -1,200 Descending FlightAware ADS-B
Wed 12:32:52 AM 34.0035 -117.8855 264° West 276 318 7,300 -1,200 Descending FlightAware ADS-B
Wed 12:33:01 AM 34.0026 -117.8952 264° West 273 314 7,100 -1,429 Descending FlightAware ADS-B
Wed 12:33:13 AM 34.0005 -117.9181 264° West 272 313 6,800 -1,500 Descending FlightAware ADS-B
Wed 12:33:21 AM 33.9994 -117.9295 264° West 271 312 6,600 -1,250 Descending FlightAware ADS-B
Wed 12:33:37 AM 33.9972 -117.9526 264° West 269 310 6,300 -1,200 Descending FlightAware ADS-B
Wed 12:33:51 AM 33.9951 -117.9731 263° West 269 310 6,000 -1,333 Descending FlightAware ADS-B
Wed 12:33:55 AM 33.9944 -117.9797 263° West 268 308 5,900 -1,500 Descending FlightAware ADS-B
Wed 12:34:03 AM 33.9934 -117.9906 264° West 267 307 5,700 -1,385 Descending FlightAware ADS-B
Wed 12:34:21 AM 33.9907 -118.0169 264° West 266 306 5,300 -1,273 Descending FlightAware ADS-B
Wed 12:34:36 AM 33.9885 -118.0396 263° West 267 307 5,000 -1,500 Descending FlightAware ADS-B
Wed 12:34:41 AM 33.9877 -118.0479 264° West 267 307 4,800 -1,440 Descending FlightAware ADS-B
Wed 12:35:01 AM 33.9847 -118.0779 264° West 269 310 4,400 -1,333 Descending FlightAware ADS-B
Wed 12:35:08 AM 33.9836 -118.0890 263° West 271 312 4,200 -1,263 Descending FlightAware ADS-B
Wed 12:35:20 AM 33.9821 -118.1040 263° West 270 311 4,000 -947 Descending FlightAware ADS-B
Wed 12:35:27 AM 33.9809 -118.1161 263° West 263 303 3,900 -400 Descending FlightAware ADS-B
Wed 12:35:35 AM 33.9796 -118.1287 264° West 258 297 3,900 -375 Level FlightAware ADS-B
Wed 12:35:43 AM 33.9793 -118.1324 263° West 253 291 3,800 -571 Descending FlightAware ADS-B
Wed 12:35:56 AM 33.9768 -118.1574 263° West 242 278 3,700 -720 Descending FlightAware ADS-B
Wed 12:36:08 AM 33.9753 -118.1719 264° West 238 274 3,500 -1,029 Descending FlightAware ADS-B
Wed 12:36:31 AM 33.9723 -118.2017 263° West 227 261 3,100 -923 Descending FlightAware ADS-B
Wed 12:36:47 AM 33.9703 -118.2216 264° West 238 274 2,900 -900 Descending FlightAware ADS-B
Wed 12:36:51 AM 33.9697 -118.2274 263° West 219 252 2,800 -1,286 Descending FlightAware ADS-B
Wed 12:37:01 AM 33.9690 -118.2341 264° West 214 246 2,600 -1,200 Descending FlightAware ADS-B
Wed 12:37:11 AM 33.9674 -118.2502 263° West 211 243 2,400 -1,200 Descending FlightAware ADS-B
Wed 12:37:16 AM 33.9668 -118.2569 264° West 208 239 2,300 -1,200 Descending FlightAware ADS-B
Wed 12:37:36 AM 33.9646 -118.2785 263° West 195 224 1,900 -1,029 Descending FlightAware ADS-B
Wed 12:37:51 AM 33.9630 -118.2946 263° West 188 216 1,700 -632 Descending FlightAware ADS-B
Wed 12:37:55 AM 33.9629 -118.2955 264° West 187 215 1,700 -947 Level FlightAware ADS-B
Wed 12:38:10 AM 33.9611 -118.3127 263° West 175 201 1,400 -885 Descending FlightAware ADS-B
Wed 12:38:56 AM 33.9572 -118.3515 263° West 138 159 800 -727 Descending FlightAware ADS-B
Wed 12:39:16 AM 33.9556 -118.3669 263° West 136 157 600 -689 Descending FlightAware ADS-B
Wed 12:39:57 AM 33.9525 -118.3987 263° West 132 152 100 -732 Descending FlightAware ADS-B

Login

Don't have an account? Register now (free) for customized features, flight alerts, and more!